Regional Weather Roundup
Issued by NWS Upton, NY

Current Version | Previous Version | Graphics & Text | Print | Product List | Glossary Off
Versions: 1 2 3 4 5 6 7 8 9 10 11 12 13 14 15 16 17 18 19 20 21 22 23 24 25 26 27 28 29 30 31 32 33 34 35 36 37 38 39 40 41 42 43 44 45 46 47 48 49 50

192
ASUS41 KOKX 212209
RWROKX

REGIONAL WEATHER ROUNDUP
NATIONAL WEATHER SERVICE NEW YORK NY
600 PM EDT MON AUG 21 2017

NOTE: "FAIR" INDICATES FEW OR NO CLOUDS BELOW 12,000 FEET WITH NO
SIGNIFICANT WEATHER AND/OR OBSTRUCTIONS TO VISIBILITY.

NYZ071-072-176-178-NJZ106-104-212300-
NEW YORK CITY METRO AREA

CITY           SKY/WX    TMP DP  RH WIND       PRES   REMARKS
Central Park   MOSUNNY   82  67  60 CALM      30.14S
Bronx Bot Gard   N/A     82  66  57 E5        30.12F
LaGuardia APRT MOSUNNY   85  67  54 S14       30.11S
Kennedy INTL   MOSUNNY   80  71  74 S17       30.13S
Breezy Point     N/A     75 N/A N/A S14         N/A
Newark/Liberty PTSUNNY   84  67  56 S9        30.11S
Teterboro      PTSUNNY   86  67  52 S13       30.10S
$$

NYZ177-179-078>081-212300-
LONG ISLAND NEW YORK

CITY           SKY/WX    TMP DP  RH WIND       PRES   REMARKS
Jones Beach      N/A     77 N/A N/A SW6G14      N/A
Matinecock PT    N/A     81 N/A N/A SW10        N/A
Farmingdale    SUNNY     79  67  66 SW15      30.13F
MacArthur/ISP  MOSUNNY   80  67  64 SW14G21   30.13F
Shirley        SUNNY     80  69  69 S10       30.14F
Mt Sinai Harb    N/A     81 N/A N/A S12G18      N/A
Westhampton    SUNNY     79  65  62 SW13      30.15F
East Hampton   FAIR      78  64  61 SW12      30.13S
Montauk          N/A     80  65  59 SW8       30.14S
$$

NYZ052-065-067-212300-
HUDSON VALLEY

CITY           SKY/WX    TMP DP  RH WIND       PRES   REMARKS
White Plains   MOSUNNY   81  64  56 S7        30.12F
Larchmont Harb   N/A     79 N/A N/A S15         N/A
Croton On Huds   N/A     84 N/A N/A SW8         N/A
Newburgh       MOSUNNY   82  72  69 SW9       30.12S
Montgomery     SUNNY     83  71  67 SW12      30.09F
Poughkeepsie   MOSUNNY   83  67  58 SW6       30.09S
Albany         MOSUNNY   83  66  56 S6        30.06F
$$

NJZ001-105-106-008-010-013-015-019>022-104-212300-
NEW JERSEY

CITY           SKY/WX    TMP DP  RH WIND       PRES   REMARKS
Newark/Liberty PTSUNNY   84  67  56 S9        30.11S
Teterboro      PTSUNNY   86  67  52 S13       30.10S
Caldwell       MOSUNNY   84  69  60 SW6       30.10F
Somerville     MOSUNNY   83  72  69 S5        30.09F
Linden         MOCLDY    85  64  50 SW6       30.11F
Perth Amboy      N/A     82 N/A N/A SW13        N/A
Sussex         SUNNY     82  71  69 VRB5      30.11F
Andover          N/A     81  70  69 SW6       30.12F
Trenton        SUNNY     84  70  62 S12       30.11F
Millville      MOSUNNY   83  74  74 VRB6      30.14F
Atlantic City  MOSUNNY   82  69  64 S13       30.15F
Wrightstown    MOSUNNY   82  70  67 SW12      30.10F
Toms River     SUNNY     81  71  71 S7        30.14F
Belmar         SUNNY     83  68  60 SW10      30.14F
$$

PAZ047>061-062-071-212300-
EASTERN PENNSYLVANIA

CITY           SKY/WX    TMP DP  RH WIND       PRES   REMARKS
Philadelphia   MOSUNNY   84  69  60 S8        30.12F
Allentown      CLOUDY    85  70  60 SW9       30.11F
Scranton       CLOUDY    82  71  69 SW8       30.11F
$$

CTZ002-004>006-009-010-012-RIZ004-006-007-MAZ004-011-015-212300-
SOUTHERN NEW ENGLAND
 IN CT

CITY           SKY/WX    TMP DP  RH WIND       PRES   REMARKS
Bradley INTL   MOSUNNY   86  64  47 SW8       30.09F
Hartford       SUNNY     85  63  47 SW7       30.08F
Danbury        PTSUNNY   83  66  56 S7        30.13S
Wtrbury/Oxford SUNNY     80  65  59 S7        30.14F
Norwalk Harbor   N/A     79 N/A N/A S10         N/A
Bridgeport     SUNNY     82  67  60 SW12      30.11F
Meriden        SUNNY     82  63  52 S9        30.10F
New Haven      MOSUNNY   80  66  62 SW7       30.12S
Chester        FAIR      81  64  57 VRB7      30.13F
Groton         SUNNY     79  63  57 SW10      30.11F
Wilimantic     CLOUDY    84  62  47 SW10      30.10F

 IN RI

CITY           SKY/WX    TMP DP  RH WIND       PRES   REMARKS
Providence     MOSUNNY   83  67  58 SW12      30.10S
Block Island   MOSUNNY   76  66  71 SW15      30.14S
Westerly       SUNNY     81  65  58 SW9       30.13S
 IN MA

CITY           SKY/WX    TMP DP  RH WIND       PRES   REMARKS
Boston         MOSUNNY   84  60  44 SW12G20   30.07S
Worcester      SUNNY     80  58  46 SW14      30.12F
Westfield      CLOUDY    83  66  56 S7        30.08F
Provincetown   SUNNY     77  66  68 SW15      30.09S
Nantucket      MOSUNNY   72  69  90 SW9       30.12F
$$

ANZ330-335-338-340-345-350-353-355-212300-
COASTAL MARINE OBSERVATIONS


STATION/POSITION TIME  SKY/WX   TEMP    WIND        PRES    VSBY  WAVE
                                AIR SEA DIR/SP/G                  HT/PER
                 (UTC)          (F)     (DEG/KT/KT) (MB)    (MI)  (FT/S)
NY HARB ENTRANCE 2150            77 76  200/ 19/ 21 1019.5          3/ 4
GREAT SOUTH BAY  2130            77 79  220/ 14/ 16   N/A
23 SSW MONTAUK P 2150            75 73              1020.8          2/ 7
15 E BARNEGAT LI 2130               78                N/A           3/ 4
HUDSON CANYON    2050            76 76  220/ 10/ 12 1020.9          2/ 8
KINGS POINT      2136            80 76  210/ 13/ 15 1019.8
EXECUTION ROCKS  NOT AVBL
WESTERN LI SOUND NOT AVBL
CENTRAL LI SOUND NOT AVBL
EASTERN LI SOUND NOT AVBL
ROBBINS REEF     2142                   170/ 13/ 15 1020.5
$$


>>>>>>>>>>>>>>>>>>>>>>>>>>>> KEY <<<<<<<<<<<<<<<<<<<<<<<<<<<
>                                                          <
>     SKY/WX - Sky Condition/Present Weather               <
>     TMP    - Temperature in Fahrenheit                   <
>     DP     - Dew Point in Fahrenheit                     <
>     RH     - Relative Humidity in Percent                <
>     WIND   - Direction (from) and Speed in MPH           <
>     PRES   - Mean Sea Level Pressure (inches of Hg)      <
>     WCI    - Wind Chill Index                            <
>     VSB    - VISIBILITY IN MILES                         <
>     HX     - HEAT INDEX                                  <
>     TC     - TEMPERATURE IN CELSIUS                      <
>     VRB    - VARIABLE WIND DIRECTION                     <
>                                                          <
>>>>>>>>>>>>>>>>>>>>>>>>>>>> KEY <<<<<<<<<<<<<<<<<<<<<<<<<<<




USA.gov is the U.S. government's official web portal to all federal, state and local government web resources and services.